Regional Weather Roundup
Issued by NWS

Home | Current Version | Previous Version | Text Only | Print | Product List | Glossary On
Versions: 1 2 3 4 5 6 7 8 9 10 11 12 13 14 15 16 17 18 19 20 21 22 23 24 25 26 27 28 29 30 31 32 33 34 35 36 37 38 39 40 41 42 43 44 45 46 47 48 49 50
000
ASUS44 KLUB 030701
RWRTX
WEST TEXAS WEATHER ROUNDUP
NATIONAL WEATHER SERVICE LUBBOCK TX
200 AM CDT FRI JUL 03 2015

NOTE: "FAIR" INDICATES FEW OR NO CLOUDS BELOW 12,000 FEET WITH NO
SIGNIFICANT WEATHER AND/OR OBSTRUCTIONS TO VISIBILITY.

TXZ004-006>008-010-012-014-016-OKZ002-030800-
TEXAS PANHANDLE/OKLAHOMA PANHANDLE

CITY           SKY/WX    TMP DP  RH WIND       PRES   REMARKS
AMARILLO       CLOUDY    66  61  84 SW7       30.07F
BORGER         PTCLDY    69  65  86 CALM      30.05S
CANADIAN         N/A     67  66  97 CALM      29.99F
DALHART        MOCLDY    70  62  76 NE3       30.12R
DUMAS          MOCLDY    66  63  87 CALM      30.09S
GUYMON         MOCLDY    66  62  87 W6        30.05F
$$

TXZ026-029-035-045-048-030800-
SOUTHERN PANHANDLE/SOUTH PLAINS/ROLLING PLAINS

CITY           SKY/WX    TMP DP  RH WIND       PRES   REMARKS
CHILDRESS      CLOUDY    73  69  87 N9        29.96R
LUBBOCK        MOCLDY    75  64  68 S9        30.05R
$$

TXZ052-054-060>062-072-078-127-140-154-169-030800-
PERMIAN BASIN/CONCHO VALLEY/BIG COUNTRY/EDWARDS PLATEAU

CITY           SKY/WX    TMP DP  RH WIND       PRES   REMARKS
ABILENE        MOCLDY    78  67  68 S10       29.99S
JUNCTION       CLEAR     73  67  81 CALM      30.01R
MIDLAND        MOCLDY    74  64  71 SE5       30.02R
ODESSA         MOCLDY    75  62  64 SE7       30.03R
SAN ANGELO     PTCLDY    73  68  84 E6        30.00R
SWEETWATER     CLOUDY    75  64  68 S8        30.03F
WINK           MOCLDY    76  62  62 SE6       30.00R
$$

TXZ055-058-074-075-080-082-030800-
FAR WEST/SOUTHWEST MOUNTAINS/TRANS PECOS

CITY           SKY/WX    TMP DP  RH WIND       PRES   REMARKS
ALPINE         CLEAR     67  59  77 CALM      30.12S
DRYDEN           N/A     78  66  66 VRB6      29.94S
EL PASO        CLOUDY    85  44  23 E9        30.01R
FORT STOCKTON  PTCLDY    72  62  71 E3        30.00S
GUADALUPE PASS CLOUDY    69  58  67 NE15      30.17R
MARFA          CLEAR    N/A N/A N/A CALM      30.10F
$$

TXZ014-016-019-021>030-083-030800
TEXAS TECH WEST TEXAS MESONET/TEXAS PANHANDLE/NORTHERN SOUTH PLAINS

CITY           SKY/WX    TMP DP  RH WIND       PRES   REMARKS
ABERNATHY 5ENE   N/A     74  63  68 E12       30.08R
AMARILLO 9NNE    N/A     67  61  80 S10       30.06F
AMARILLO 7SSE    N/A     65  61  85 SW8       30.10S
AMHERST 1NE      N/A     71  62  74 S5        30.07S
BOOTLEG 11WNW    N/A     70  62  74 SW6       30.13S
CANADIAN 6E      N/A     66  66  98 N6        29.98F
CAPROCK CYN SP   N/A     67  62  86 W9        29.99F
CHILDRESS 2NNE   N/A     73  64  72 NW7       29.95R
CLARENDON 2WSW   N/A     66  59  79 W8        30.01S
DIMMITT 2NE      N/A     71  60  70 E8        30.09S
FLOYDADA 2NNE    N/A     69  62  78 NE8       30.05F
FRIONA 2NE       N/A     69  62  79 S2        30.09S
GOODLETT 3W      N/A     75  62  63 SW5       29.91S
HART 3N          N/A     69  61  76 E7        30.09S
HEREFORD 2NW     N/A     73  60  62 SE7       30.09R
MCLEAN 1E        N/A     68  66  95 N6        30.00S
MEMPHIS 1NE      N/A     71  67  88 W6        29.96F
MULESHOE 2SSW    N/A     67  63  87 S1        30.08S
OLTON 6S         N/A     70  64  81 NE9       30.08R
PALO DURO SP   LGT RAIN  67  61  78 NW10      30.09S
PAMPA 2E         N/A     64  63  96 N2        30.04S
PLAINVIEW 1S     N/A     69  62  80 SE5       30.06F
SILVERTON 7ESE   N/A     64  60  87 SW7       30.03F
TULIA 2ENE       N/A     67  61  79 S3        30.06R
TURKEY 2WSW      N/A     70  64  83 NW12      29.97R
UMBARGER 3NNE    N/A     68  58  71 E6        30.11R
$$

TXZ033>036-039>041-045>048-030800
TEXAS TECH WEST TEXAS MESONET/SOUTH PLAINS

CITY           SKY/WX    TMP DP  RH WIND       PRES   REMARKS
AIKEN 3WSW       N/A     69  61  74 SE10      30.07F
ANDREWS 2NE      N/A     73  61  65 S5        30.05R
ANTON 6SSW       N/A     70  62  75 S6        30.05F
BROWNFIELD 2S    N/A     73  62  69 S10       30.06R
DENVR CTY 7WNW   N/A     70  60  71 SE6       30.08R
GAIL 2ESE        N/A     74  65  75 S6        30.01F
LAMESA 2SE       N/A     73  63  71 S7        30.04S
LEVELLAND 4S     N/A     72  62  71 S7        30.06S
LUBBOCK 3WNW     N/A     74  62  64 S7        30.05S
MORTON 1ENE      N/A     71  64  78 S5        30.07S
ODONNELL 1N      N/A     73  62  68 S7        30.05R
PLAINS 3N        N/A     72  61  68 SE7       30.08S
RALLS 1SE        N/A     73  64  71 NE8       30.07R
REESE CENTER     N/A     71  62  72 S8        30.05S
SEAGRAVES 1SW    N/A     73  63  70 S9        30.06S
SEMINOLE 2NNE    N/A     73  62  67 S8        30.06R
SLATON 2NE       N/A     73  63  70 S9        30.04S
SNYDER 3E        N/A     75  65  70 S8        29.99F
SUNDOWN 8SW      N/A     67  61  83 S7        30.07S
TAHOKA 3NNE      N/A     73  63  71 S12       30.04S
WOLFFORTH 6SSW   N/A     73  62  68 S10       30.05S
$$

TXZ031-032-036>038-042>044-030800-
TEXAS TECH WEST TEXAS MESONET/ROLLING PLAINS

CITY           SKY/WX    TMP DP  RH WIND       PRES   REMARKS
ASPERMONT 3NE    N/A     77  66  67 S6        29.96R
FLUVANNA 3WNW    N/A     75  63  66 S7        30.02F
GRAHAM 5SSW      N/A     76  62  62 S10       30.02F
GUTHRIE 10WSW    N/A     76  65  68 W3        29.98S
HASKELL 1NW      N/A     79  62  55 S9        29.96R
JAYTON 1SSE      N/A     76  66  71 SW3       29.98R
KNOX CITY 3NW    N/A     78  64  61 S6        29.94F
LK A HENRY 1NW   N/A     77  63  62 SW7       29.99F
NORTHFIELD 1S    N/A     72  68  87 SW5       29.94F
ODELL 4ENE       N/A     73  70  89 SW3       29.92F
PADUCAH 10SW     N/A     76  64  67 SW10      29.95F
POST 1NE         N/A     76  64  66 S8        30.00F
RRING SPRGS 3N   N/A     72  64  77 W8        30.01F
SEYMOUR 3NW      N/A     80  64  56 S9        29.92F
SPUR 1W          N/A     73  65  78 W1        29.99S
WEINERT 2NNE     N/A     78  65  64 S9        29.95S
WHITE RVR 6NE    N/A     74  63  70 S5        30.02R
$$

TXZ052-054-060>062-072-078-127-140-154-169-030800-
TEXAS TECH WEST TEXAS MESONET/PERMIAN BASIN/
CONCHO VALLEY/BIG COUNTRY/EDWARDS PLATEAU

CITY           SKY/WX    TMP DP  RH WIND       PRES   REMARKS
COYANOSA 2N      N/A     73  63  68 E6        29.99S
JUNCTION 1SSW    N/A     73  68  86 S2        30.01S
MERTZON 3NNE     N/A     73  68  83 S6        30.02R
SAN ANGELO 7NW   N/A     74  67  77 SE5       30.01R
STRLNG CT 4WSW   N/A     73  64  73 SE2       30.04R
ST LAWRNCE 5SW   N/A     70  64  83 E5        30.03R
SWEETWATR 11SW   N/A     74  65  74 S7        30.03F
WALL 1E          N/A     75  65  71 SE9       30.01R
$$

TXZ055-058-074-075-080-082-030800-
TEXAS TECH WEST TEXAS MESONET/FAR WEST/SOUTHWEST MOUNTAINS/TRANS PECOS

CITY           SKY/WX    TMP DP  RH WIND       PRES   REMARKS
PRSMN GAP BBNP   N/A     76  63  64 N12       29.97R
$$



USA.gov is the U.S. government's official web portal to all federal, state and local government web resources and services.